USA 40 R/B DEB, 23383

Orbit data source: Space-Track

USA 40 R/B DEB, 23383 is space debris originally from a launch on Tue, 08 Aug 1989 UTC launched from the Air Force Eastern Test Range (AFETR). Debris objects in space refer to the collection of defunct objects orbiting the Earth. Examples of debris include non-operational satellites, rocket bodies, and fragments generated from explosions, collisions, or faulty payload assembly.

Loading next visibility...
Identifier
23383, 1989-061BF
Orbit
Active
Country
Flag of USUS
Related business
Manufacturer
Unknown
Mission
Spacecraft
Bus & Motor
Unknown
Mass
Unknown
Launch date (UTC)
1989-08-08 (37 years ago)
Launch vehicle
Unknown
Launch site
Air Force Eastern Test Range (AFETR)
Object type
Payload
Rocket body
Debris
Shape & HBR
Unknown shape, 0.1 m
Radar Cross Section
Medium (>0.1 m² and <1 m²)

Expand to show TLE details & history
Last TLE update: 3 days ago

TLE from 3 days ago
0 USA 40 R/B DEB
1 23383U 89061BF  26170.81222507  .00047091  00000-0  18042-1 0  9993
2 23383  57.0154 336.7025 2682544 136.8921 247.6435  9.62316394244453
Epoch: 2026-06-19T19:29Z
TLE epoch observation values (Epoch: 2026-06-19T19:29:36.246Z)
Latitude
0.00004°
Longitude
136.26567°
Altitude
4,394.81 km
Speed
5.597 km/s
True Right ascension
22h 26m 48s
True Declination
0° 00' 00"
Sunlit
Object was in daylight at epoch
Visualization orbit readout
Latitude
Unknown
Longitude
Unknown
Altitude
Unknown
Speed
Unknown
Apparent Right ascension
Unknown
Apparent Declination
Unknown
Sunlit
N/A
Visualization observer readout
Local Sidereal Time
00:51:01
Azimuth
Unknown
Elevation
Unknown
Doppler factor
Unknown
Orbital elements
Apogee altitude
5,462.715 km
Perigee altitude
453.688 km
Semi-major axis
9,336.338 km
Eccentricity
0.26825
Inclination
57.0154°
RAAN
336.7025°
Arg. of periapsis
136.8921°
True anomaly
223.18775°
Mean anomaly
247.6435°
Eccentric anomaly
235.04616°
Mean motion
2.4059 °/min
Orbital period
149.63 mins
BSTAR
0.018042
Loading maneuver chart data...
Computing Atmospheric mass density...
Loading historical data...
Loading historical data...
Loading historical data...
Loading historical data...
Loading historical data...
Loading historical data...
Loading historical data...

Documentation

Showing up to 5 results
|